Regional Weather Roundup
Issued by NWS

Home | Current Version | Previous Version | Graphics & Text | Print | Product List | Glossary On
Versions: 1 2 3 4 5 6 7 8 9 10 11 12 13 14 15 16 17 18 19 20 21 22 23 24 25 26 27 28 29 30 31 32 33 34 35 36 37 38 39 40 41 42 43 44 45 46 47 48 49 50
000
ASUS43 KFSD 221910
RWRSD

WEATHER ROUNDUP FOR SOUTH DAKOTA
NATIONAL WEATHER SERVICE SIOUX FALLS SD
200 PM CDT FRI AUG 22 2014

NOTE: "FAIR" INDICATES FEW OR NO CLOUDS BELOW 12,000 FEET WITH NO
SIGNIFICANT WEATHER AND/OR OBSTRUCTIONS TO VISIBILITY.


SDZ001>005-009-010-012>017-222000-
NORTHWEST AND NORTH CENTRAL SOUTH DAKOTA

CITY           SKY/WX    TMP DP  RH WIND       PRES   REMARKS
BUFFALO          N/A     69  59  70 VRB3      30.01F
FAITH            N/A     67  63  87 NE12      30.06S
MOBRIDGE       CLOUDY    72  63  73 NE5       30.02F
$$

SDZ012>016-024>037-041>051-057-063-072>074-222000-
SOUTHWEST AND SOUTH CENTRAL SOUTH DAKOTA

CITY           SKY/WX    TMP DP  RH WIND       PRES   REMARKS
RAPID CTY ARPT PTSUNNY   74  62  66 E7        30.05F
PIERRE         CLOUDY    77  67  71 E9        29.99R
CUSTER         MOSUNNY   72  52  49 SE8       30.14F
ELLSWORTH AFB  PTSUNNY   72  63  73 VRB7      30.05F
PHILIP         PTSUNNY   77  63  61 NE7       30.01S
PINE RIDGE     CLOUDY    71  61  70 CALM      30.05F
WINNER         FAIR      80  71  74 E7        30.00S
$$

SDZ004>011-016>023-039-040-222000-
NORTHEAST SOUTH DAKOTA

CITY           SKY/WX    TMP DP  RH WIND       PRES   REMARKS
ABERDEEN       CLOUDY    73  67  81 NE9       30.01S
WATERTOWN      PTSUNNY   79  68  69 E7        30.00S
SISSETON         N/A     77  70  79 NE5       29.99R
$$

SDZ017-020-022-023-036>040-048>070-222000-
SOUTHEAST SOUTH DAKOTA

CITY           SKY/WX    TMP DP  RH WIND       PRES   REMARKS
SIOUX FALLS    PTSUNNY   86  70  58 E9        29.98S
HURON          MOSUNNY   85  65  51 E9        29.97S
CHAMBERLAIN    CLOUDY    80  67  65 SE7       29.99S
MITCHELL       MOSUNNY   87  65  47 CALM      29.97F
YANKTON        MOSUNNY   82  70  65 NE8       29.96R
$$

ABBREVIATIONS USED IN REMARKS
   TC - TEMPERATURE IN CELSIUS
  WCI - WIND CHILL INDEX
   HX - HEAT INDEX
  VSB - VISIBILITY



USA.gov is the U.S. government's official web portal to all federal, state and local government web resources and services.